Bloomington, IN

5:20 PM EDT on August 28, 2016 (GMT -0400)
Monroe County

Weather History for KBMG - May, 2011

Change the Weather History Date:

Sunday, May 22, 2011

  Actual Average Record
Temperature  
Mean Temperature 73 °F 64 °F  
Max Temperature 86 °F 76 °F 86 °F (2007)
Min Temperature 59 °F 53 °F 36 °F (2002)
Degree Days  
Heating Degree Days 0 3  
Month to date heating degree days 142 115  
Since 1 July heating degree days 5243 5229  
Cooling Degree Days 8 3  
Month to date cooling degree days 50 35  
Year to date cooling degree days 65 54  
Growing Degree Days 22 (Base 50)    
Moisture  
Dew Point 64 °F    
Average Humidity 74    
Maximum Humidity 100    
Minimum Humidity 48    
Precipitation  
Precipitation 0.25 in 0.16 in 0.25 in (2011)
Month to date precipitation 4.67 3.78  
Year to date precipitation 26.82 18.43  
Sea Level Pressure  
Sea Level Pressure 29.87 in    
Wind  
Wind Speed 8 mph (South)    
Max Wind Speed 21 mph    
Max Gust Speed 36 mph    
Visibility 6 miles    
Events Fog , Rain , Thunderstorm    
T = Trace of Precipitation, MM = Missing Value Source: NWS Daily Summary

Daily Weather History Graph

Daily Weather History Graph

Search for Another Location

Airport or City:

Trip Planner

Search our weather history database for the weather conditions in past years. The results will help you decide how hot, cold, wet, or windy it might be!

Date:

Astronomy

May. 22, 2011 Rise Set
Actual Time 6:27 AM EDT 8:58 PM EDT
Civil Twilight 5:57 AM EDT 9:29 PM EDT
Nautical Twilight 5:19 AM EDT 10:07 PM EDT
Astronomical Twilight 4:36 AM EDT 10:50 PM EDT
Moon 12:57 AM EDT (5/22) 11:28 AM EDT (5/22)
Length of Visible Light 15h 32m
Length of Day
14h 30m
Waning Gibbous, 70% of the Moon is Illuminated
May 22
Waning Gibbous
May 24
Last Quarter
Jun 1
New
Jun 8
First Quarter
Jun 15
Full

Hourly Weather History & Observations

Time (EDT) Temp. Heat Index Dew Point Humidity Pressure Visibility Wind Dir Wind Speed Gust Speed Precip Events Conditions
12:53 AM 68.0 °F - 66.0 °F 93% 29.88 in 6.0 mi SSE 5.8 mph - N/A   Clear
1:53 AM 66.0 °F - 64.9 °F 96% 29.88 in 4.0 mi South 5.8 mph - N/A   Clear
2:33 AM 64.4 °F - 64.4 °F 100% 29.90 in 2.5 mi South 4.6 mph - N/A   Clear
2:42 AM 64.4 °F - 64.4 °F 100% 29.90 in 3.0 mi SSE 6.9 mph - N/A   Clear
2:53 AM 64.9 °F - 64.0 °F 97% 29.88 in 2.0 mi SSE 4.6 mph - N/A   Clear
3:00 AM 64.4 °F - 64.4 °F 100% 29.90 in 0.8 mi SSE 4.6 mph - N/A   Clear
3:09 AM 64.4 °F - 64.4 °F 100% 29.90 in 0.2 mi SSE 5.8 mph - N/A Fog Fog
3:23 AM 64.4 °F - 64.4 °F 100% 29.90 in 0.5 mi South 4.6 mph - N/A Fog Fog
3:29 AM 64.4 °F - 62.6 °F 94% 29.91 in 1.2 mi South 5.8 mph - N/A   Partly Cloudy
3:33 AM 64.4 °F - 62.6 °F 94% 29.91 in 3.0 mi South 4.6 mph - N/A   Partly Cloudy
3:53 AM 63.0 °F - 63.0 °F 100% 29.89 in 4.0 mi South 4.6 mph - N/A   Clear
4:53 AM 64.0 °F - 63.0 °F 96% 29.89 in 8.0 mi South 5.8 mph - N/A   Clear
5:48 AM 62.6 °F - 60.8 °F 94% 29.91 in 1.8 mi SSE 3.5 mph - N/A   Clear
5:53 AM 62.1 °F - 61.0 °F 96% 29.89 in 1.5 mi SSE 3.5 mph - N/A   Clear
6:00 AM 62.6 °F - 60.8 °F 94% 29.90 in 3.0 mi SSE 3.5 mph - N/A   Clear
6:08 AM 62.6 °F - 62.6 °F 100% 29.91 in 1.2 mi Calm Calm - N/A   Clear
6:16 AM 62.6 °F - 60.8 °F 94% 29.91 in 0.5 mi SSE 3.5 mph - N/A Fog Fog
6:32 AM 59.0 °F - 57.2 °F 94% 29.91 in 5.0 mi South 3.5 mph - N/A   Clear
6:53 AM 59.0 °F - 59.0 °F 100% 29.90 in 6.0 mi South 3.5 mph - N/A   Clear
7:53 AM 66.0 °F - 64.0 °F 93% 29.91 in 7.0 mi SE 3.5 mph - 0.01 in   Clear
8:53 AM 69.1 °F - 66.0 °F 90% 29.91 in 10.0 mi SSE 3.5 mph - N/A   Clear
9:53 AM 75.0 °F - 66.9 °F 76% 29.90 in 10.0 mi South 11.5 mph - N/A   Clear
10:27 AM 73.4 °F - 66.2 °F 78% 29.92 in 7.0 mi SW 6.9 mph - 0.01 in Rain , Thunderstorm Light Thunderstorms and Rain
10:35 AM 73.4 °F - 66.2 °F 78% 29.91 in 7.0 mi SSW 6.9 mph - 0.06 in Rain , Thunderstorm Thunderstorms and Rain
10:46 AM 73.4 °F - 68.0 °F 83% 29.90 in 7.0 mi South 4.6 mph - 0.06 in Thunderstorm Thunderstorm
10:53 AM 73.9 °F - 68.0 °F 82% 29.89 in 6.0 mi SSW 10.4 mph - 0.08 in Rain , Thunderstorm Light Thunderstorms and Rain
10:56 AM 71.6 °F - 68.0 °F 88% 29.91 in 1.8 mi South 11.5 mph - 0.12 in Rain , Thunderstorm Heavy Thunderstorms and Rain
11:05 AM 69.8 °F - 66.2 °F 88% 29.91 in 6.0 mi South 9.2 mph - 0.13 in Rain , Thunderstorm Light Thunderstorms and Rain
11:45 AM 71.6 °F - 69.8 °F 94% 29.94 in 10.0 mi NE 3.5 mph - 0.15 in   Mostly Cloudy
11:53 AM 72.0 °F - 69.1 °F 91% 29.91 in 10.0 mi East 5.8 mph - 0.15 in   Mostly Cloudy
12:53 PM 79.0 °F - 70.0 °F 74% 29.88 in 10.0 mi South 6.9 mph - N/A   Clear
1:53 PM 81.0 °F 84.9 °F 71.1 °F 72% 29.87 in 10.0 mi SSE 8.1 mph - N/A   Clear
2:53 PM 84.9 °F 88.2 °F 68.0 °F 57% 29.84 in 10.0 mi South 12.7 mph 17.3 mph N/A   Clear
3:53 PM 86.0 °F 87.3 °F 64.0 °F 48% 29.80 in 10.0 mi SSW 13.8 mph 20.7 mph N/A   Partly Cloudy
4:13 PM 82.4 °F 83.4 °F 62.6 °F 51% 29.83 in 10.0 mi SW 15.0 mph 26.5 mph 0.00 in Rain , Thunderstorm Light Thunderstorms and Rain
4:31 PM 82.4 °F 83.9 °F 64.4 °F 54% 29.82 in 10.0 mi SSW 13.8 mph 18.4 mph 0.01 in   Scattered Clouds
4:53 PM 82.9 °F 84.6 °F 64.9 °F 54% 29.78 in 10.0 mi SSW 15.0 mph - 0.01 in   Scattered Clouds
5:38 PM 82.4 °F 84.6 °F 66.2 °F 58% 29.81 in 10.0 mi SSE 9.2 mph - N/A Thunderstorm Scattered Clouds
5:53 PM 79.0 °F - 66.0 °F 64% 29.80 in 10.0 mi South 11.5 mph 27.6 mph N/A Thunderstorm Mostly Cloudy
6:24 PM 75.2 °F - 66.2 °F 73% 29.82 in 10.0 mi SSE 6.9 mph - N/A   Mostly Cloudy
6:53 PM 79.0 °F - 66.0 °F 64% 29.79 in 10.0 mi SW 13.8 mph - N/A   Clear
7:53 PM 78.1 °F - 60.1 °F 54% 29.76 in 10.0 mi SW 10.4 mph 19.6 mph N/A   Clear
8:53 PM 75.9 °F - 57.9 °F 54% 29.75 in 10.0 mi SSW 11.5 mph - N/A   Clear
9:53 PM 73.0 °F - 59.0 °F 61% 29.77 in 10.0 mi SSW 5.8 mph - N/A   Partly Cloudy
10:53 PM 73.0 °F - 59.0 °F 61% 29.79 in 10.0 mi South 6.9 mph - N/A   Mostly Cloudy
11:53 PM 73.0 °F - 59.0 °F 61% 29.78 in 10.0 mi South 10.4 mph - N/A   Overcast